HVDC transfer

From www.emi.ea.govt.nz provided by the Electricity Authority (New Zealand)
Run at: 20240502135751

Parameters
Date range,04 Dec 2020 - 04 Dec 2020
Time scale,Trading period
Show,Average flow (MW)

Period start,Period end,Trading period,Direction,Energy transfer (GWh),Peak flow (MW),Average flow (MW)
04/12/2020 00:00:00,04/12/2020 00:30:00,1,Southward at Benmore,-0.018,-36,-36
04/12/2020 00:30:00,04/12/2020 01:00:00,2,Southward at Benmore,-0.036,-73,-73
04/12/2020 01:00:00,04/12/2020 01:30:00,3,Southward at Benmore,-0.004,-9,-9
04/12/2020 01:30:00,04/12/2020 02:00:00,4,Southward at Benmore,-0.007,-15,-15
04/12/2020 02:00:00,04/12/2020 02:30:00,5,Southward at Benmore,-0.010,-21,-21
04/12/2020 02:30:00,04/12/2020 03:00:00,6,Southward at Benmore,-0.017,-35,-35
04/12/2020 03:00:00,04/12/2020 03:30:00,7,Southward at Benmore,-0.018,-37,-37
04/12/2020 03:30:00,04/12/2020 04:00:00,8,Southward at Benmore,-0.021,-42,-42
04/12/2020 04:00:00,04/12/2020 04:30:00,9,Southward at Benmore,-0.015,-30,-30
04/12/2020 04:30:00,04/12/2020 05:00:00,10,Southward at Benmore,-0.022,-45,-45
04/12/2020 05:00:00,04/12/2020 05:30:00,11,Northward at Haywards,0.005,10,10
04/12/2020 05:30:00,04/12/2020 06:00:00,12,Northward at Haywards,0.044,88,88
04/12/2020 06:00:00,04/12/2020 06:30:00,13,Northward at Haywards,0.128,255,255
04/12/2020 06:30:00,04/12/2020 07:00:00,14,Northward at Haywards,0.188,375,375
04/12/2020 07:00:00,04/12/2020 07:30:00,15,Northward at Haywards,0.202,403,403
04/12/2020 07:30:00,04/12/2020 08:00:00,16,Northward at Haywards,0.207,413,413
04/12/2020 08:00:00,04/12/2020 08:30:00,17,Northward at Haywards,0.214,427,427
04/12/2020 08:30:00,04/12/2020 09:00:00,18,Northward at Haywards,0.226,451,451
04/12/2020 09:00:00,04/12/2020 09:30:00,19,Northward at Haywards,0.209,418,418
04/12/2020 09:30:00,04/12/2020 10:00:00,20,Northward at Haywards,0.204,408,408
04/12/2020 10:00:00,04/12/2020 10:30:00,21,Northward at Haywards,0.209,418,418
04/12/2020 10:30:00,04/12/2020 11:00:00,22,Northward at Haywards,0.192,383,383
04/12/2020 11:00:00,04/12/2020 11:30:00,23,Northward at Haywards,0.196,391,391
04/12/2020 11:30:00,04/12/2020 12:00:00,24,Northward at Haywards,0.193,386,386
04/12/2020 12:00:00,04/12/2020 12:30:00,25,Northward at Haywards,0.196,391,391
04/12/2020 12:30:00,04/12/2020 13:00:00,26,Northward at Haywards,0.195,390,390
04/12/2020 13:00:00,04/12/2020 13:30:00,27,Northward at Haywards,0.178,355,355
04/12/2020 13:30:00,04/12/2020 14:00:00,28,Northward at Haywards,0.171,341,341
04/12/2020 14:00:00,04/12/2020 14:30:00,29,Northward at Haywards,0.178,356,356
04/12/2020 14:30:00,04/12/2020 15:00:00,30,Northward at Haywards,0.181,361,361
04/12/2020 15:00:00,04/12/2020 15:30:00,31,Northward at Haywards,0.178,355,355
04/12/2020 15:30:00,04/12/2020 16:00:00,32,Northward at Haywards,0.199,397,397
04/12/2020 16:00:00,04/12/2020 16:30:00,33,Northward at Haywards,0.192,384,384
04/12/2020 16:30:00,04/12/2020 17:00:00,34,Northward at Haywards,0.184,368,368
04/12/2020 17:00:00,04/12/2020 17:30:00,35,Northward at Haywards,0.169,337,337
04/12/2020 17:30:00,04/12/2020 18:00:00,36,Northward at Haywards,0.146,292,292
04/12/2020 18:00:00,04/12/2020 18:30:00,37,Northward at Haywards,0.123,245,245
04/12/2020 18:30:00,04/12/2020 19:00:00,38,Northward at Haywards,0.094,187,187
04/12/2020 19:00:00,04/12/2020 19:30:00,39,Northward at Haywards,0.071,142,142
04/12/2020 19:30:00,04/12/2020 20:00:00,40,Northward at Haywards,0.068,135,135
04/12/2020 20:00:00,04/12/2020 20:30:00,41,Northward at Haywards,0.066,131,131
04/12/2020 20:30:00,04/12/2020 21:00:00,42,Northward at Haywards,0.114,228,228
04/12/2020 21:00:00,04/12/2020 21:30:00,43,Northward at Haywards,0.105,209,209
04/12/2020 21:30:00,04/12/2020 22:00:00,44,Northward at Haywards,0.094,187,187
04/12/2020 22:00:00,04/12/2020 22:30:00,45,Northward at Haywards,0.108,215,215
04/12/2020 22:30:00,04/12/2020 23:00:00,46,Northward at Haywards,0.105,209,209
04/12/2020 23:00:00,04/12/2020 23:30:00,47,Northward at Haywards,0.079,157,157
04/12/2020 23:30:00,05/12/2020 00:00:00,48,Northward at Haywards,0.071,141,141
